Location: Betzi
(47.2343°N, 9.5260°E)
Time: 22:33:36
(UTC+00:00)

COSMOS 2455 - Pass Details

Date: 27 May 2022
Orbit: 901 x 908 km, 67.1° (Epoch: 29 June)

Event Time Altitude Azimuth Distance (km) Brightness Sun altitude
Exits shadow 02:08:47 15° 222° (SW) 2,227 4.2 -11.6°
Maximum altitude 02:13:48 72° 305° (NW) 954 3.0 -11.0°
Drops below altitude 10° 02:19:50 10° 31° (NNE) 2,602 6.7 -10.3°
Sets 02:22:22 0° 33° (NNE) 3,547 8.0 -10.0°
